Location: ??
(30.4792°N, 114.2544°E)
Time: 12:44:13
(UTC+00:00)

Meteor 2-4 Rocket - Pass Details

Date: 07 June 2020
Orbit: 799 x 908 km, 81.2° (Epoch: 06 July)

Event Time Altitude Azimuth Distance (km) Brightness Sun altitude
Rises 11:40:38 0° 182° (S) 3,304 6.5 -4.0°
Reaches altitude 10° 11:43:01 10° 181° (S) 2,370 5.8 -4.5°
Maximum altitude 11:48:20 76° 96° (E) 824 3.6 -5.5°
Drops below altitude 10° 11:53:41 10° 11° (N) 2,382 6.3 -6.5°
Sets 11:56:04 0° 10° (N) 3,322 7.1 -6.9°
